Location: Coopersdale
(40.3556°N, 78.9372°W)
Time: 21:40:46
(UTC+00:00)

Tiros 1 - Visible Passes

Search period start: 21 January 2021 00:00
Search period end: 31 January 2021 00:00
Orbit: 630 x 663 km, 48.4° (Epoch: 20 January)

Date Brightness Start Highest point End Pass type
(mag) Time Alt. Az. Time Alt. Az. Time Alt. Az.
21 Jan 7.0 00:25:53 10° SW 00:30:25 83° S 00:30:25 83° S visible
21 Jan 7.9 23:10:14 10° SSW 23:14:31 37° SE 23:17:54 15° ENE visible
22 Jan 8.1 00:52:04 10° WSW 00:55:35 44° WNW 00:55:35 44° WNW visible
22 Jan 7.1 23:35:44 10° SW 23:40:22 79° SSE 23:43:01 25° ENE visible
23 Jan 9.3 01:18:35 10° W 01:20:41 23° WNW 01:20:41 23° WNW visible
24 Jan 7.5 00:01:51 10° WSW 00:06:26 57° NNW 00:08:04 36° NE visible
24 Jan 10.1 01:45:10 10° WNW 01:45:44 13° WNW 01:45:44 13° WNW visible
24 Jan 7.2 22:45:34 10° SW 22:50:12 74° SSE 22:54:50 10° ENE visible
25 Jan 8.0 00:28:21 10° W 00:32:40 37° NNW 00:33:04 37° N visible
25 Jan 7.4 23:11:39 10° WSW 23:16:15 60° NNW 23:20:22 13° NE visible
26 Jan 8.7 00:54:56 10° WNW 00:58:02 28° NNW 00:58:02 28° NNW visible
26 Jan 8.0 23:38:06 10° W 23:42:28 39° NNW 23:45:19 19° NE visible
27 Jan 9.4 01:21:22 10° WNW 01:22:58 19° NW 01:22:58 19° NW visible
28 Jan 8.3 00:04:41 10° WNW 00:08:50 31° N 00:10:15 26° NNE visible
28 Jan 10.1 01:47:33 10° NW 01:47:54 12° NW 01:47:54 12° NW visible
29 Jan 8.3 00:31:09 10° WNW 00:35:10 30° N 00:35:10 30° N visible
29 Jan 8.3 23:14:27 10° WNW 23:18:37 31° N 23:22:27 12° NE visible
30 Jan 8.7 00:57:22 10° NW 01:00:07 28° NNW 01:00:07 28° NNW visible
30 Jan 8.3 23:40:56 10° WNW 23:45:03 30° N 23:47:24 19° NE visible
